Weather in Goa

India     15°20′56″N   74°06′03″E
temp.,
°C
wind,
m/s
gust,
m/s
humid.,
%
clouds,
%
prec.,
mm/h
press.,
hPa
HPBL,
m
26 january, tue
tue2623:30+22nne127943 0.0 101363
02:30+20ene11770 0.0 101147
05:30+20ne11740 0.0 101145
08:30+23e11570 0.0 101353
11:30+33w21320 0.0 1013719
14:30+32w44350 0.0 1009626
17:30+29nw36490 0.0 1009375
20:30+23n12690 0.0 101172
27 january, wed
wed2723:30+22nne12650 0.0 101160
02:30+20ene11670 0.0 101050
05:30+20ese12600 0.0 101036
08:30+23ese12470 0.0 101397
11:30+33sw22250 0.0 1013838
14:30+31wsw54380 0.0 1009685
17:30+28w33570 0.0 1009514
20:30+22nnw12760 0.0 101165
28 january, thu
thu2823:30+20ene11810 0.0 101249
02:30+20ese11820 0.0 101038
05:30+20se12750 0.0 101145
08:30+23se125911 0.0 1014115
11:30+32sw23347 0.0 1013949
14:30+31wsw554725 0.0 1010743
17:30+27wnw346113 0.0 1009547
20:30+22n12782 0.0 101269
29 january, fri
fri2923:30+20nne11821 0.0 101358
02:30+20ene128396 0.0 101136
05:30+20ene236280 0.0 101148
08:30+23e235379 0.0 1013116
11:30+34sw132872 0.0 10141126
14:30+32w553586 0.0 1010786
17:30+28w235281 0.0 1010462
20:30+23n127674 0.0 101276
30 january, sat
sat3023:30+21ene128074 0.0 101353
02:30+20e227786 0.0 101137
05:30+19e116856 0.0 101136
08:30+23e12470 0.0 101490
11:30+33sw23280 0.0 10131015
14:30+31wsw55390 0.0 1010530
17:30+28wnw33540 0.0 1009565
20:30+22n12770 0.0 101260